West Bend, WI

6:44 AM CDT on May 29, 2017 (GMT -0500)
West Bend Municipal

Weather History for KETB - January, 2014

Change the Weather History Date:

Sunday, January 12, 2014

  Actual Average Record
Temperature  
Mean Temperature 32 °F -  
Max Temperature 39 °F 25 °F 51 °F (2006)
Min Temperature 24 °F 8 °F -17 °F (1974)
Degree Days  
Heating Degree Days 34    
Moisture  
Dew Point 26 °F    
Average Humidity 77    
Maximum Humidity 93    
Minimum Humidity 61    
Precipitation  
Precipitation 0.00 in - - ()
Sea Level Pressure  
Sea Level Pressure 29.63 in    
Wind  
Wind Speed 10 mph (SSW)    
Max Wind Speed 18 mph    
Max Gust Speed 24 mph    
Visibility 10 miles    
Events      
Averages and records for this station are not official NWS values.
T = Trace of Precipitation, MM = Missing Value Source: NWS Daily Summary

Daily Weather History Graph

Daily Weather History Graph

Search for Another Location

Airport or City:

Trip Planner

Search our weather history database for the weather conditions in past years. The results will help you decide how hot, cold, wet, or windy it might be!

Date:

Astronomy

Jan. 12, 2014 Rise Set
Actual Time 7:23 AM CST 4:38 PM CST
Civil Twilight 6:51 AM CST 5:10 PM CST
Nautical Twilight 6:16 AM CST 5:45 PM CST
Astronomical Twilight 5:41 AM CST 6:20 PM CST
Moon 2:06 PM CST (1/12) 4:21 AM CST (1/12)
Length of Visible Light 10h 18m
Length of Day
9h 15m
Waxing Gibbous, 90% of the Moon is Illuminated
Jan 12
Waxing Gibbous
Jan 15
Full
Jan 23
Last Quarter
Jan 30
New
Feb 6
First Quarter

Hourly Weather History & Observations

Time (CST) Temp. Windchill Dew Point Humidity Pressure Visibility Wind Dir Wind Speed Gust Speed Precip Events Conditions
12:15 AM 30.2 °F 19.8 °F 23.0 °F 75% 29.69 in 10.0 mi West 13.8 mph 24.2 mph N/A   Overcast
12:35 AM 28.4 °F 18.0 °F 23.0 °F 80% 29.70 in 10.0 mi West 12.7 mph - N/A   Overcast
12:55 AM 28.4 °F 18.5 °F 23.0 °F 80% 29.70 in 10.0 mi West 11.5 mph 18.4 mph N/A   Overcast
1:15 AM 28.4 °F 17.5 °F 23.0 °F 80% 29.71 in 10.0 mi West 13.8 mph 20.7 mph N/A   Overcast
1:35 AM 28.4 °F 17.5 °F 23.0 °F 80% 29.71 in 10.0 mi West 13.8 mph - N/A   Overcast
1:55 AM 28.4 °F 17.5 °F 23.0 °F 80% 29.72 in 10.0 mi West 13.8 mph 17.3 mph N/A   Overcast
2:15 AM 28.4 °F 21.2 °F 23.0 °F 80% 29.73 in 10.0 mi WSW 6.9 mph - N/A   Overcast
2:35 AM 28.4 °F 22.2 °F 23.0 °F 80% 29.75 in 10.0 mi WSW 5.8 mph - N/A   Overcast
2:55 AM 28.4 °F 22.2 °F 23.0 °F 80% 29.75 in 10.0 mi SW 5.8 mph - N/A   Overcast
3:15 AM 26.6 °F 21.2 °F 23.0 °F 86% 29.74 in 10.0 mi WSW 4.6 mph - N/A   Overcast
3:35 AM 26.6 °F 20.0 °F 23.0 °F 86% 29.73 in 10.0 mi WSW 5.8 mph - N/A   Overcast
3:55 AM 26.6 °F 20.0 °F 23.0 °F 86% 29.73 in 10.0 mi WSW 5.8 mph - N/A   Mostly Cloudy
4:15 AM 26.6 °F 19.1 °F 23.0 °F 86% 29.74 in 10.0 mi WSW 6.9 mph - N/A   Mostly Cloudy
4:35 AM 26.6 °F 21.2 °F 23.0 °F 86% 29.73 in 10.0 mi SSW 4.6 mph - N/A   Mostly Cloudy
4:55 AM 26.6 °F 21.2 °F 23.0 °F 86% 29.74 in 10.0 mi SW 4.6 mph - N/A   Mostly Cloudy
5:15 AM 26.6 °F 20.0 °F 23.0 °F 86% 29.73 in 10.0 mi SW 5.8 mph - N/A   Mostly Cloudy
5:35 AM 24.8 °F - 21.2 °F 86% 29.73 in 10.0 mi Calm Calm - N/A   Scattered Clouds
5:55 AM 24.8 °F - 21.2 °F 86% 29.73 in 10.0 mi Calm Calm - N/A   Mostly Cloudy
6:15 AM 24.8 °F 20.5 °F 21.2 °F 86% 29.73 in 10.0 mi SSW 3.5 mph - N/A   Scattered Clouds
6:35 AM 24.8 °F 16.9 °F 23.0 °F 93% 29.73 in 7.0 mi SSW 6.9 mph - N/A   Scattered Clouds
6:55 AM 24.8 °F 17.9 °F 21.2 °F 86% 29.72 in 7.0 mi SSW 5.8 mph - N/A   Scattered Clouds
7:15 AM 24.8 °F 17.9 °F 23.0 °F 93% 29.72 in 7.0 mi SSW 5.8 mph - N/A   Mostly Cloudy
7:35 AM 26.6 °F 20.0 °F 23.0 °F 86% 29.72 in 10.0 mi SSW 5.8 mph - N/A   Mostly Cloudy
7:55 AM 26.6 °F 19.1 °F 23.0 °F 86% 29.72 in 10.0 mi SSW 6.9 mph - N/A   Mostly Cloudy
8:15 AM 26.6 °F 17.5 °F 23.0 °F 86% 29.73 in 10.0 mi SSW 9.2 mph - N/A   Overcast
8:35 AM 28.4 °F 19.1 °F 23.0 °F 80% 29.73 in 10.0 mi SSW 10.4 mph - N/A   Overcast
8:55 AM 28.4 °F 19.7 °F 23.0 °F 80% 29.73 in 10.0 mi South 9.2 mph - N/A   Overcast
9:15 AM 30.2 °F 22.6 °F 23.0 °F 75% 29.73 in 10.0 mi SSW 8.1 mph - N/A   Mostly Cloudy
9:35 AM 30.2 °F 22.6 °F 24.8 °F 80% 29.71 in 10.0 mi South 8.1 mph - N/A   Scattered Clouds
9:55 AM 30.2 °F 20.8 °F 24.8 °F 80% 29.71 in 10.0 mi South 11.5 mph 17.3 mph N/A   Mostly Cloudy
10:15 AM 32.0 °F 22.5 °F 24.8 °F 75% 29.71 in 10.0 mi South 12.7 mph 17.3 mph N/A   Overcast
10:35 AM 32.0 °F 24.8 °F 26.6 °F 80% 29.70 in 10.0 mi SSE 8.1 mph - N/A   Overcast
10:55 AM 32.0 °F 24.8 °F 26.6 °F 80% 29.68 in 10.0 mi SSE 8.1 mph 16.1 mph N/A   Scattered Clouds
11:15 AM 33.8 °F 23.9 °F 26.6 °F 75% 29.66 in 10.0 mi South 15.0 mph 20.7 mph N/A   Clear
11:35 AM 33.8 °F 24.3 °F 26.6 °F 75% 29.63 in 10.0 mi South 13.8 mph 21.9 mph N/A   Clear
11:55 AM 33.8 °F 23.9 °F 24.8 °F 70% 29.61 in 10.0 mi South 15.0 mph 20.7 mph N/A   Clear
12:15 PM 35.6 °F 26.6 °F 24.8 °F 65% 29.59 in 10.0 mi South 13.8 mph 23.0 mph N/A   Clear
12:35 PM 35.6 °F 28.0 °F 24.8 °F 65% 29.57 in 10.0 mi South 10.4 mph 19.6 mph N/A   Clear
12:55 PM 35.6 °F 29.2 °F 26.6 °F 70% 29.56 in 10.0 mi South 8.1 mph 17.3 mph N/A   Clear
1:15 PM 37.4 °F 29.3 °F 26.6 °F 65% 29.55 in 10.0 mi South 12.7 mph 17.3 mph N/A   Clear
1:35 PM 37.4 °F 27.5 °F 26.6 °F 65% 29.55 in 10.0 mi South 18.4 mph 24.2 mph N/A   Clear
1:55 PM 37.4 °F 29.3 °F 26.6 °F 65% 29.53 in 10.0 mi South 12.7 mph 20.7 mph N/A   Clear
2:15 PM 39.2 °F 33.0 °F 26.6 °F 61% 29.55 in 10.0 mi SSW 9.2 mph - N/A   Clear
2:35 PM 39.2 °F 33.6 °F 26.6 °F 61% 29.55 in 10.0 mi SSW 8.1 mph - N/A   Clear
2:55 PM 39.2 °F 32.5 °F 26.6 °F 61% 29.55 in 10.0 mi SSW 10.4 mph - N/A   Clear
3:15 PM 39.2 °F 32.5 °F 26.6 °F 61% 29.55 in 10.0 mi SSW 10.4 mph 17.3 mph N/A   Clear
3:35 PM 37.4 °F 30.3 °F 26.6 °F 65% 29.54 in 10.0 mi South 10.4 mph 17.3 mph N/A   Clear
3:55 PM 37.4 °F 30.8 °F 26.6 °F 65% 29.54 in 10.0 mi South 9.2 mph - N/A   Clear
4:15 PM 37.4 °F 31.4 °F 26.6 °F 65% 29.55 in 10.0 mi SSW 8.1 mph - N/A   Clear
4:35 PM 37.4 °F 29.8 °F 26.6 °F 65% 29.55 in 10.0 mi SSW 11.5 mph 16.1 mph N/A   Clear
4:55 PM 37.4 °F 30.8 °F 28.4 °F 70% 29.55 in 10.0 mi SSW 9.2 mph 17.3 mph N/A   Clear
5:15 PM 37.4 °F 28.2 °F 28.4 °F 70% 29.56 in 10.0 mi SSW 16.1 mph 21.9 mph N/A   Clear
5:35 PM 37.4 °F 28.9 °F 28.4 °F 70% 29.55 in 10.0 mi SSW 13.8 mph 23.0 mph N/A   Clear
5:55 PM 37.4 °F 29.8 °F 28.4 °F 70% 29.57 in 10.0 mi SSW 11.5 mph 24.2 mph N/A   Clear
6:15 PM 37.4 °F 28.2 °F 30.2 °F 75% 29.57 in 10.0 mi SSW 16.1 mph 21.9 mph N/A   Clear
6:35 PM 37.4 °F 28.9 °F 30.2 °F 75% 29.57 in 10.0 mi SSW 13.8 mph 20.7 mph N/A   Clear
6:55 PM 37.4 °F 28.9 °F 30.2 °F 75% 29.57 in 10.0 mi SSW 13.8 mph 21.9 mph N/A   Clear
7:15 PM 37.4 °F 29.3 °F 30.2 °F 75% 29.56 in 10.0 mi SSW 12.7 mph 19.6 mph N/A   Clear
7:35 PM 37.4 °F 30.3 °F 30.2 °F 75% 29.56 in 10.0 mi SSW 10.4 mph 16.1 mph N/A   Clear
7:55 PM 37.4 °F 28.9 °F 30.2 °F 75% 29.56 in 10.0 mi SSW 13.8 mph 18.4 mph N/A   Clear
8:15 PM 37.4 °F 29.8 °F 30.2 °F 75% 29.56 in 10.0 mi SSW 11.5 mph 16.1 mph N/A   Clear
8:35 PM 37.4 °F 30.8 °F 32.0 °F 81% 29.56 in 10.0 mi SSW 9.2 mph - N/A   Clear
8:55 PM 37.4 °F 30.3 °F 32.0 °F 81% 29.55 in 10.0 mi SSW 10.4 mph 16.1 mph N/A   Clear
9:15 PM 37.4 °F 30.8 °F 32.0 °F 81% 29.55 in 10.0 mi SSW 9.2 mph - N/A   Clear
9:35 PM 37.4 °F 30.8 °F 32.0 °F 81% 29.55 in 10.0 mi SSW 9.2 mph - N/A   Clear
9:55 PM 37.4 °F 30.8 °F 32.0 °F 81% 29.55 in 10.0 mi SSW 9.2 mph - N/A   Clear
10:15 PM 37.4 °F 31.4 °F 32.0 °F 81% 29.54 in 10.0 mi SSW 8.1 mph - N/A   Clear
10:35 PM 37.4 °F 30.8 °F 32.0 °F 81% 29.53 in 10.0 mi SSW 9.2 mph - N/A   Clear
10:55 PM 37.4 °F 30.3 °F 32.0 °F 81% 29.54 in 10.0 mi SSW 10.4 mph - N/A   Clear
11:15 PM 37.4 °F 29.8 °F 32.0 °F 81% 29.53 in 10.0 mi SSW 11.5 mph 16.1 mph N/A   Clear
11:35 PM 37.4 °F 31.4 °F 32.0 °F 81% 29.53 in 10.0 mi SSW 8.1 mph - N/A   Clear
11:55 PM 37.4 °F 29.8 °F 32.0 °F 81% 29.53 in 10.0 mi SSW 11.5 mph - N/A   Clear